Wind_Speed
36 43 43 40 41 41 30 21 20 21 23 17 6 25 34 18 28 18 15 14 9 11 14 12 12 13 15 14 13 12 13 12 10 9 7 5 4 5 5 5 5 4 4 4 4 4 4 5 6
28 36 43 48 47 45 35 25 24 19 22 23 14 23 33 35 29 11 4 9 9 13 14 13 15 15 17 17 15 13 14 15 12 11 9 8 7 6 5 5 5 5 4 3 3 4 5 6 7
31 32 35 44 48 47 41 30 28 25 24 21 19 30 33 41 39 29 11 10 12 12 16 15 16 17 19 18 19 18 17 18 16 14 12 10 9 8 6 5 6 5 5 4 3 3 5 7 8
36 38 37 40 40 39 43 36 34 30 32 27 18 30 38 47 45 40 28 16 21 19 17 17 19 19 20 17 22 21 20 21 19 16 14 11 10 11 8 7 7 6 6 5 5 6 7 8 9
38 40 41 40 35 33 37 38 41 38 31 21 20 28 41 46 47 37 32 25 22 21 19 19 20 21 21 19 25 23 22 21 20 17 14 13 11 10 9 6 7 7 7 7 7 8 10 11 12
44 44 44 41 39 36 35 32 37 42 32 31 23 21 43 44 39 37 32 27 25 26 23 20 20 20 22 18 19 19 21 21 20 17 15 13 12 10 8 7 9 8 8 9 11 11 11 13 15
47 48 48 46 42 41 40 37 33 35 39 40 27 19 35 38 42 41 35 29 28 32 29 24 22 22 22 21 20 22 20 20 18 16 14 13 12 12 10 9 9 10 12 12 12 13 14 16 18
51 53 53 51 49 45 40 41 39 38 45 43 31 25 33 46 41 39 44 32 33 36 34 31 28 26 26 24 23 22 18 17 15 15 13 12 11 10 9 10 11 12 13 13 14 16 18 19 22
57 58 56 54 53 50 44 45 45 44 45 52 43 30 30 43 47 44 54 40 34 36 42 37 33 31 27 25 21 20 16 14 13 12 11 10 9 9 11 12 15 15 14 14 17 19 22 24 26
59 61 59 58 57 58 53 52 48 49 49 47 58 30 35 47 52 43 51 51 30 33 42 33 34 31 29 23 20 19 17 15 12 11 13 9 7 8 9 13 13 15 16 17 19 22 26 28 29
60 63 62 63 64 64 62 60 56 57 53 46 46 46 43 50 52 48 48 57 36 30 41 32 39 34 29 26 26 25 23 16 16 15 9 10 11 12 12 16 14 17 17 19 21 24 28 30 32
62 65 64 65 67 68 69 67 65 62 58 54 50 48 48 51 55 53 51 58 40 35 34 33 35 36 32 29 29 29 29 26 20 18 19 17 15 13 15 16 19 19 19 22 24 27 30 34 37
53 57 62 66 68 70 70 72 70 67 63 62 53 52 58 59 49 42 43 65 56 43 37 35 35 32 30 28 30 29 22 22 24 19 18 16 17 19 18 20 22 21 22 25 28 31 35 38 39
40 44 50 54 60 67 71 73 73 69 62 69 60 58 66 62 58 42 40 42 62 52 45 42 43 38 34 36 35 31 25 22 17 17 17 19 23 22 21 19 22 22 25 28 31 34 36 40 42
35 38 41 43 48 57 58 66 66 67 66 71 70 63 69 64 71 49 45 43 59 52 49 51 50 42 38 42 36 33 31 27 23 17 16 17 19 21 22 22 22 23 27 31 35 38 39 44 47
25 26 28 22 30 35 40 58 65 64 62 66 74 71 72 76 68 62 58 57 63 68 57 56 49 49 44 51 48 32 31 26 22 18 16 18 22 23 23 23 24 28 34 38 39 41 43 47 51
29 28 30 29 27 30 36 44 55 66 65 68 71 77 78 79 71 71 66 60 66 71 64 54 51 53 43 39 43 31 35 29 24 20 19 22 24 24 24 27 29 33 36 39 40 42 45 49 50
26 30 32 32 24 23 32 41 45 54 61 68 74 76 78 78 71 67 74 68 67 66 73 59 57 35 43 41 35 35 37 32 26 24 24 27 27 26 26 28 30 34 37 40 43 45 47 48 44
21 22 22 26 26 28 38 39 35 42 47 68 75 80 77 76 70 64 67 71 66 57 69 73 49 42 47 41 42 39 37 35 29 27 29 30 29 28 28 31 33 33 34 40 44 45 41 39 39
25 28 24 27 26 32 34 35 35 41 43 44 59 81 80 76 76 64 62 64 63 56 58 64 63 39 56 36 37 39 40 38 31 33 32 31 30 30 30 32 36 38 38 41 37 33 33 34 29
24 31 29 33 31 34 33 36 35 33 45 46 47 60 83 84 80 76 60 61 58 57 56 55 59 55 52 32 41 44 48 40 36 35 33 33 30 30 33 35 32 37 33 32 33 30 29 30 27
23 23 33 36 37 38 34 39 34 29 35 43 47 46 57 80 81 80 74 64 59 58 57 52 58 59 54 49 45 56 53 40 36 38 37 32 30 31 31 30 33 31 28 30 32 29 26 25 24
25 25 25 29 32 33 33 38 24 30 34 36 36 48 53 59 78 80 76 71 61 61 59 53 55 58 56 54 53 57 58 37 45 42 37 32 31 31 31 29 30 31 31 32 29 21 21 22 20
23 26 27 29 29 35 18 28 14 21 24 30 33 40 53 50 61 76 76 71 65 64 62 53 49 55 59 57 56 58 36 43 44 41 37 38 34 32 22 29 27 29 30 24 18 13 14 19 22
25 22 24 26 32 30 20 27 23 25 28 23 30 33 55 50 58 70 73 70 68 67 62 53 48 51 57 61 55 57 60 43 45 38 46 40 38 20 21 27 26 28 23 15 14 19 19 22 25
23 29 26 32 32 32 29 29 17 21 24 32 26 32 57 62 64 66 64 64 72 66 60 53 49 48 50 54 53 59 59 44 36 40 41 21 31 20 23 25 25 20 15 15 17 20 22 24 26
23 34 28 28 34 33 30 24 26 29 28 23 25 36 57 67 63 66 66 64 72 66 59 54 48 45 40 44 50 54 61 60 56 37 31 25 19 16 18 20 20 16 18 19 20 21 22 25 26
26 20 30 35 34 34 27 24 24 24 27 21 27 47 58 70 61 65 63 62 70 64 57 52 46 43 39 41 49 54 54 51 41 34 32 30 24 16 17 18 15 15 18 21 21 22 23 26 29
21 23 24 24 30 31 31 24 21 26 20 25 22 46 57 70 58 64 66 65 68 63 55 49 49 47 44 46 47 47 50 47 40 41 34 30 15 17 14 17 13 16 20 22 22 23 25 29 32
16 16 23 27 25 38 36 38 18 25 22 24 18 42 52 55 55 61 66 63 65 59 51 52 52 50 50 47 43 46 46 47 43 43 28 19 19 15 16 15 16 20 21 21 23 25 28 32 32
Wind_Direction
237 239 238 240 243 245 238 231 228 223 225 231 255 285 283 263 268 258 269 186 204 211 222 230 242 234 236 234 236 245 256 253 245 242 234 227 231 239 240 248 241 245 286 316 333 353 348 356 349
246 241 239 238 242 245 241 228 230 221 225 229 219 246 264 269 252 276 234 195 223 224 228 233 240 243 233 242 243 248 262 258 248 244 248 239 233 235 242 248 264 281 292 310 329 336 344 339 343
251 246 243 241 240 243 244 232 228 220 207 215 256 253 266 271 264 258 333 266 240 259 246 235 237 248 247 245 250 247 247 253 247 239 239 244 243 229 234 244 259 266 276 296 317 325 326 332 340
252 248 248 243 244 245 248 232 230 225 224 207 241 266 264 269 268 265 258 262 258 261 248 241 237 239 246 258 263 246 248 249 246 235 233 233 235 240 222 235 252 261 275 287 302 327 327 327 335
256 254 249 249 247 245 247 241 230 224 228 205 220 260 261 262 265 262 258 244 252 254 246 240 235 232 232 255 256 254 242 246 245 243 236 233 230 236 248 248 255 257 266 285 305 318 324 329 338
257 257 255 251 248 243 244 245 232 227 216 194 204 250 256 261 264 256 247 238 245 249 245 239 229 231 234 233 243 243 244 240 242 237 238 239 243 243 240 245 264 266 287 305 315 320 322 328 326
255 254 255 254 248 241 239 236 235 229 209 201 206 229 254 255 259 257 240 224 230 240 239 233 224 222 235 242 250 248 241 237 236 233 232 237 242 249 255 254 264 293 304 308 314 317 320 318 319
255 254 252 250 250 245 237 238 237 226 209 211 211 219 245 243 248 258 249 229 219 239 230 228 227 233 230 241 245 233 230 235 233 237 234 233 239 244 255 271 282 296 302 311 312 316 316 318 320
253 253 254 251 248 245 237 235 233 225 218 205 204 224 235 242 244 246 251 240 224 227 232 224 229 227 226 238 232 229 216 210 217 217 224 235 244 257 266 280 287 295 300 306 310 315 318 318 323
251 252 251 248 245 242 235 230 228 227 225 206 203 214 217 234 241 239 248 243 226 218 232 237 227 223 223 218 219 208 210 210 226 235 243 248 258 272 288 287 298 299 304 306 312 317 315 320 327
247 250 247 245 244 242 237 229 225 226 220 205 202 199 225 229 233 239 240 248 229 218 226 238 236 219 220 211 221 223 226 222 224 227 243 258 274 287 298 298 297 296 301 306 309 313 316 322 326
243 242 241 242 241 241 239 234 228 222 215 201 201 204 205 234 240 236 242 247 240 229 219 231 227 230 216 232 233 236 241 222 225 241 248 269 270 292 293 297 294 296 300 302 308 312 317 322 325
256 250 246 241 239 238 240 236 233 226 219 203 200 205 204 207 232 236 242 241 240 232 224 225 216 219 224 229 234 238 241 240 227 237 255 260 278 288 293 292 289 294 301 308 312 316 319 320 322
255 252 248 247 248 246 242 238 236 228 225 208 200 208 220 203 208 216 223 241 237 232 234 227 221 218 223 225 226 234 235 236 242 247 260 269 278 285 280 276 279 294 304 308 314 314 316 316 319
264 261 259 253 249 248 250 244 238 234 232 216 204 207 221 220 207 202 214 224 234 223 230 215 216 217 214 217 225 221 229 236 243 248 257 271 283 290 286 287 291 296 302 311 316 314 316 318 320
264 263 260 255 256 252 253 248 242 233 225 224 219 210 217 226 215 203 211 220 227 232 233 195 217 219 214 212 215 215 229 234 247 254 274 284 283 289 295 298 296 297 307 312 314 313 318 319 319
267 266 261 258 258 254 254 258 243 234 228 219 218 221 222 230 228 215 208 219 226 231 232 237 216 212 215 219 203 208 229 230 245 265 269 278 285 290 296 296 299 302 304 304 307 310 311 312 315
263 258 253 246 244 253 263 267 260 245 235 222 216 218 223 229 232 223 217 217 227 229 234 226 202 211 215 224 231 216 232 236 240 260 261 270 281 286 289 294 297 298 303 306 308 310 309 311 317
267 268 258 245 246 254 255 258 255 248 237 232 213 213 219 225 228 228 231 224 222 230 234 240 245 234 223 219 209 212 229 236 240 251 255 264 273 280 282 288 296 310 309 306 308 310 313 314 318
270 260 251 254 257 248 255 260 245 241 236 223 231 212 212 217 223 222 227 233 231 231 233 233 231 225 209 202 215 219 228 235 236 246 252 263 273 282 288 293 303 302 313 318 318 323 315 316 327
275 263 249 256 261 254 256 257 266 255 242 235 239 238 217 213 220 221 216 224 230 229 230 229 224 234 240 225 224 226 230 232 239 246 255 263 275 282 284 295 301 311 319 318 321 321 316 316 320
278 258 254 258 261 260 261 270 255 260 253 245 244 237 235 219 215 219 217 218 225 223 228 225 225 227 230 238 236 230 234 226 238 245 251 261 270 275 286 296 305 320 317 321 320 316 315 313 305
281 275 265 265 270 270 267 269 266 256 252 243 240 233 231 225 219 218 217 216 221 220 223 225 222 222 230 227 240 244 236 223 234 243 247 255 262 272 288 302 318 323 327 324 319 319 313 308 301
280 268 266 268 271 268 285 277 259 253 263 248 242 226 224 222 219 218 218 215 214 219 220 221 222 224 226 233 235 241 250 218 228 239 246 253 258 266 299 317 322 328 324 319 318 316 313 310 306
278 284 278 269 266 278 285 268 280 296 261 259 254 233 210 209 209 215 216 214 214 214 216 216 217 222 225 229 231 243 222 224 211 237 251 242 248 299 310 327 327 323 318 314 307 307 306 311 311
268 269 273 269 271 275 275 276 293 276 264 250 253 226 200 195 198 202 206 210 214 211 211 213 216 221 226 229 227 235 248 256 217 242 238 274 266 286 306 315 320 318 311 311 306 303 309 312 312
258 265 262 261 269 272 274 287 278 285 277 236 255 206 201 183 184 198 200 206 211 209 206 210 214 219 224 228 231 231 237 240 261 270 275 278 273 294 315 318 309 298 308 307 306 305 312 312 311
278 258 247 252 264 263 274 279 278 287 294 264 227 202 201 181 185 187 186 199 206 209 204 203 210 219 220 223 227 226 230 239 248 249 265 273 273 312 314 312 292 300 301 298 301 308 311 313 314
280 270 253 259 250 267 274 263 279 278 274 268 232 204 197 184 184 190 181 198 203 207 201 198 208 215 217 220 224 228 233 235 244 251 256 271 287 292 311 292 297 297 294 296 303 308 312 316 312
290 278 249 233 245 262 274 284 277 280 290 277 257 198 203 183 188 192 183 196 201 203 195 199 208 212 216 217 221 223 225 230 235 246 249 269 294 301 302 295 293 294 295 302 308 312 312 312 312
Height
5862 5864 5866 5869 5872 5870 5880 5889 5891 5894 5897 5899 5901 5896 5890 5890 5891 5897 5898 5900 5903 5907 5910 5912 5916 5917 5919 5920 5921 5922 5923 5923 5923 5923 5923 5923 5925 5925 5925 5926 5927 5927 5928 5928 5927 5926 5926 5925 5925
5856 5857 5859 5860 5862 5864 5876 5885 5887 5893 5896 5896 5895 5897 5890 5884 5887 5897 5899 5901 5906 5908 5910 5910 5913 5916 5918 5919 5920 5921 5922 5923 5923 5923 5923 5923 5924 5925 5926 5926 5926 5927 5927 5926 5926 5926 5925 5925 5924
5848 5850 5852 5852 5855 5859 5868 5879 5883 5887 5891 5894 5894 5892 5892 5880 5884 5896 5899 5900 5906 5908 5909 5909 5911 5913 5915 5916 5917 5919 5921 5921 5922 5922 5922 5923 5924 5924 5925 5926 5926 5926 5926 5926 5925 5925 5924 5924 5923
5840 5843 5845 5845 5850 5858 5861 5873 5876 5882 5885 5885 5886 5888 5888 5879 5880 5891 5900 5901 5902 5904 5907 5907 5909 5911 5912 5914 5917 5918 5919 5920 5920 5920 5921 5921 5922 5923 5923 5924 5925 5925 5925 5924 5924 5924 5923 5922 5921
5832 5833 5836 5840 5847 5852 5853 5862 5867 5871 5879 5882 5881 5884 5880 5875 5877 5885 5892 5896 5899 5901 5904 5905 5906 5908 5910 5911 5914 5916 5917 5918 5919 5919 5920 5920 5921 5922 5923 5922 5923 5923 5923 5923 5922 5922 5921 5921 5919
5823 5825 5827 5833 5839 5846 5847 5852 5858 5866 5872 5872 5873 5878 5871 5869 5868 5880 5888 5892 5895 5897 5900 5901 5903 5905 5908 5909 5912 5914 5915 5916 5917 5917 5918 5919 5920 5921 5921 5921 5922 5922 5922 5921 5921 5921 5920 5918 5917
5813 5814 5817 5822 5830 5835 5840 5845 5848 5856 5867 5869 5869 5869 5867 5865 5862 5867 5877 5888 5890 5889 5895 5897 5899 5902 5905 5907 5909 5911 5912 5913 5915 5915 5916 5918 5918 5920 5921 5921 5921 5921 5921 5920 5920 5919 5917 5916 5915
5802 5801 5805 5811 5817 5825 5832 5835 5840 5843 5849 5865 5863 5858 5859 5857 5859 5861 5863 5880 5887 5884 5888 5893 5895 5898 5901 5904 5906 5907 5909 5911 5912 5914 5915 5916 5917 5918 5919 5920 5919 5920 5920 5918 5918 5917 5915 5914 5913
5786 5786 5791 5800 5805 5811 5821 5823 5826 5828 5833 5841 5852 5854 5851 5850 5851 5855 5854 5868 5879 5883 5881 5887 5891 5893 5897 5901 5903 5904 5906 5908 5910 5912 5914 5915 5916 5916 5917 5917 5918 5918 5917 5916 5916 5915 5913 5912 5911
5769 5772 5779 5786 5790 5792 5802 5808 5814 5815 5822 5831 5839 5849 5845 5841 5842 5847 5846 5854 5872 5878 5876 5885 5888 5890 5893 5897 5901 5902 5904 5906 5909 5910 5912 5914 5914 5914 5915 5914 5915 5916 5915 5914 5913 5912 5910 5908 5907
5753 5756 5764 5769 5773 5775 5782 5790 5799 5802 5810 5817 5822 5828 5837 5835 5835 5836 5841 5842 5863 5871 5872 5878 5882 5886 5890 5894 5897 5899 5901 5904 5906 5909 5910 5912 5912 5912 5913 5913 5913 5914 5913 5911 5910 5909 5906 5904 5901
5732 5736 5742 5748 5753 5756 5763 5770 5780 5788 5799 5804 5809 5815 5824 5831 5829 5833 5834 5836 5853 5862 5867 5868 5874 5881 5885 5889 5892 5894 5897 5899 5902 5905 5907 5909 5910 5910 5910 5910 5910 5910 5910 5908 5906 5905 5902 5898 5896
5721 5725 5727 5729 5734 5738 5744 5754 5761 5775 5791 5792 5795 5799 5802 5814 5824 5824 5826 5829 5839 5852 5858 5859 5865 5873 5877 5883 5888 5891 5893 5897 5899 5902 5904 5905 5906 5907 5907 5906 5906 5906 5905 5904 5901 5899 5897 5893 5892
5709 5710 5713 5717 5722 5726 5729 5736 5741 5765 5779 5780 5781 5784 5789 5802 5810 5815 5818 5821 5829 5845 5852 5852 5852 5861 5869 5874 5882 5887 5890 5893 5895 5898 5900 5901 5902 5902 5902 5903 5902 5902 5902 5899 5898 5896 5894 5890 5887
5698 5699 5703 5709 5713 5714 5717 5718 5732 5752 5761 5769 5768 5773 5775 5791 5797 5804 5808 5814 5819 5831 5833 5845 5847 5844 5856 5865 5873 5879 5886 5890 5892 5895 5896 5897 5897 5896 5896 5898 5898 5897 5896 5895 5893 5889 5887 5882 5879
5691 5693 5694 5704 5700 5704 5702 5702 5716 5732 5741 5750 5761 5763 5765 5772 5787 5794 5798 5800 5811 5810 5818 5800 5840 5839 5841 5849 5860 5872 5880 5885 5888 5890 5890 5891 5891 5891 5892 5893 5892 5891 5890 5887 5885 5881 5879 5875 5870
5683 5686 5686 5691 5692 5692 5691 5689 5698 5711 5717 5730 5744 5754 5759 5762 5778 5783 5786 5791 5800 5803 5813 5815 5835 5836 5836 5845 5853 5863 5872 5878 5883 5884 5885 5886 5886 5887 5888 5888 5887 5886 5885 5882 5879 5876 5873 5869 5865
5676 5675 5676 5680 5686 5685 5683 5681 5689 5693 5695 5711 5725 5739 5747 5754 5766 5777 5777 5782 5787 5803 5801 5810 5790 5828 5840 5837 5841 5855 5864 5872 5879 5880 5879 5880 5882 5883 5883 5884 5881 5880 5878 5875 5873 5870 5867 5862 5858
5669 5669 5669 5672 5675 5675 5674 5675 5677 5682 5683 5688 5700 5720 5732 5743 5756 5767 5771 5773 5778 5794 5795 5799 5820 5834 5832 5829 5834 5842 5857 5864 5874 5871 5872 5875 5876 5877 5877 5876 5876 5874 5873 5869 5865 5862 5858 5854 5849
5664 5662 5665 5666 5668 5669 5667 5666 5667 5671 5673 5676 5681 5698 5714 5729 5740 5756 5762 5766 5772 5785 5790 5805 5815 5792 5775 5804 5831 5833 5844 5856 5864 5861 5865 5868 5870 5871 5872 5871 5870 5867 5865 5861 5857 5854 5851 5847 5843
5658 5656 5657 5658 5661 5660 5658 5656 5661 5665 5666 5671 5676 5683 5699 5709 5724 5740 5753 5760 5767 5777 5782 5791 5805 5805 5780 5809 5830 5825 5833 5847 5854 5855 5859 5862 5866 5864 5864 5865 5865 5864 5859 5855 5851 5848 5845 5841 5837
5650 5652 5651 5650 5650 5650 5653 5647 5652 5655 5655 5660 5666 5670 5677 5699 5708 5720 5741 5750 5759 5771 5777 5785 5795 5804 5802 5812 5818 5823 5831 5842 5845 5847 5851 5857 5857 5857 5859 5860 5859 5858 5854 5849 5845 5842 5839 5835 5832
5645 5644 5644 5644 5642 5642 5644 5640 5641 5645 5644 5648 5652 5658 5664 5679 5696 5708 5722 5742 5752 5762 5772 5781 5789 5798 5806 5815 5820 5818 5808 5830 5835 5840 5844 5847 5849 5852 5854 5854 5852 5851 5846 5843 5839 5836 5834 5831 5828
5639 5637 5636 5637 5637 5633 5639 5636 5629 5636 5636 5635 5638 5641 5652 5665 5682 5698 5713 5731 5743 5751 5764 5776 5786 5794 5804 5813 5817 5807 5787 5809 5826 5833 5835 5839 5846 5848 5851 5848 5847 5844 5841 5838 5834 5832 5830 5828 5825
5632 5630 5629 5628 5627 5626 5629 5626 5624 5628 5624 5626 5627 5629 5636 5655 5669 5684 5699 5717 5732 5739 5757 5770 5781 5790 5796 5806 5815 5811 5774 5804 5813 5824 5827 5834 5839 5844 5843 5843 5842 5840 5837 5834 5832 5829 5827 5823 5819
5625 5625 5623 5620 5620 5620 5619 5616 5620 5617 5616 5614 5615 5618 5626 5642 5656 5670 5685 5708 5718 5734 5750 5765 5775 5782 5789 5799 5806 5806 5799 5809 5810 5817 5824 5832 5835 5836 5837 5839 5837 5835 5833 5831 5829 5826 5823 5819 5815
5621 5618 5618 5614 5612 5611 5611 5613 5610 5607 5605 5602 5604 5609 5616 5632 5646 5659 5677 5693 5712 5726 5744 5758 5769 5777 5785 5792 5798 5803 5803 5807 5811 5817 5819 5826 5828 5830 5832 5833 5831 5832 5829 5827 5825 5822 5817 5815 5809
5607 5608 5607 5607 5604 5600 5602 5604 5602 5602 5597 5597 5597 5600 5608 5621 5634 5649 5669 5685 5710 5722 5736 5752 5764 5773 5780 5783 5785 5789 5796 5808 5817 5816 5821 5824 5824 5826 5827 5827 5827 5825 5825 5824 5821 5818 5813 5809 5802
5600 5597 5598 5599 5598 5596 5594 5597 5596 5594 5592 5588 5589 5597 5598 5609 5624 5645 5663 5682 5702 5715 5731 5748 5755 5763 5769 5771 5776 5787 5796 5806 5808 5814 5818 5822 5820 5824 5822 5822 5821 5821 5821 5820 5816 5813 5808 5803 5798
5593 5592 5591 5590 5593 5592 5589 5586 5588 5586 5585 5584 5582 5589 5600 5606 5613 5632 5658 5678 5693 5712 5730 5738 5747 5754 5756 5763 5773 5780 5789 5796 5804 5809 5813 5814 5817 5819 5817 5816 5817 5818 5817 5814 5811 5807 5803 5797 5792